Home   Weather   Vadsø   Past weeks

Flag for Norway Past Weather in Vadsø, Norway — Yesterday and Last 2 Weeks

Now
46 °F

Passing clouds.


Feels Like: 43 °F
Forecast: 50 / 57 °F
Wind: 7 mph from West

Location: Vadso

Current Time: Aug 31, 2016 at 4:33:41 AM

Latest Report: Aug 31, 2016 at 1:50 AM


Visibility: N/A

Pressure: 29.68 "Hg

Humidity: 87%

Dew Point: 43 °F

Location of VadsøLocation

Past Weather in Vadsø — Graph

°F

Vadsø Temperature Yesterday

Maximum temperature yesterday: 57 °F (at 1:50 PM)
Minimum temperature yesterday: 39 °F (at 5:50 AM)
Average temperature yesterday: 51 °F

High & Low Weather Summary for the Past Weeks

 TemperatureHumidityPressure
High68 °F (Aug 19, 2:50 PM)100% (Aug 21, 11:50 AM)30.30 "Hg (Aug 21, 11:50 AM)
Low37 °F (Aug 26, 9:50 PM)54% (Aug 28, 12:50 PM)29.59 "Hg (Aug 27, 12:50 PM)
Average52 °F76%29.97 "Hg
* Reported Aug 16 4:50 AM — Aug 31 1:50 AM, Vadsø, Weather by CustomWeather, © 2016

Note: Actual official high and low records may vary slightly from our data, if they occured in-between our weather recording intervals... More about our weather records

Advertising

Vadsø Weather History for the Previous 24 Hours

Scroll right to see more
 ConditionsComfort  
Time TempWeatherWind HumidityBarometerVisibility
1:50 AM
Wed, Aug 31
46 °FPassing clouds.7 mph87%29.68 "HgN/A
12:50 AM46 °FPassing clouds.2 mph93%29.68 "HgN/A
11:50 PM
Tue, Aug 30
46 °FPartly cloudy.5 mph87%29.65 "HgN/A
10:50 PM46 °FPartly cloudy.6 mph87%29.65 "HgN/A
9:50 PM48 °FSprinkles. Partly cloudy.5 mph94%29.65 "HgN/A
8:50 PM50 °FRain showers. Partly cloudy.7 mph88%29.65 "HgN/A
7:50 PM50 °FScattered showers. Passing clouds.3 mph82%29.62 "HgN/A
6:50 PM55 °FScattered showers. Passing clouds.5 mph67%29.62 "HgN/A
5:50 PM54 °FScattered showers. Scattered clouds.3 mph77%29.62 "HgN/A
4:50 PM55 °FScattered showers. Clear.5 mph72%29.62 "HgN/A
3:50 PM57 °FScattered showers. Clear.6 mph59%29.62 "HgN/A
2:50 PM57 °FSunny.5 mph59%29.62 "Hg10 mi
1:50 PM57 °FSunny.6 mph59%29.62 "Hg10 mi
12:50 PM55 °FSunny.6 mph63%29.62 "Hg10 mi
11:50 AM55 °FSunny.6 mph63%29.62 "Hg10 mi
10:50 AM54 °FSunny.6 mph67%29.62 "Hg10 mi
10:20 AM52 °FSunny.5 mph72%29.62 "Hg10 mi
8:50 AM52 °FSunny.3 mph72%29.62 "Hg10 mi
7:50 AM50 °FSunny.3 mph76%29.62 "Hg10 mi
7:20 AM50 °FSunny.6 mph76%29.62 "Hg10 mi
5:50 AM39 °FSunny.No wind93%29.62 "Hg10 mi
5:20 AM41 °FSunny.No wind87%29.62 "Hg10 mi
Weather by CustomWeather, © 2016

See weather overviewHow to use our weather pages